TimeCDT,TemperatureF,Dew PointF,Humidity,Sea Level PressureIn,VisibilityMPH,Wind Direction,Wind SpeedMPH,Gust SpeedMPH,PrecipitationIn,Events,Conditions,WindDirDegrees,DateUTC
12:52 AM,24.1,18.0,77,30.15,10.0,WNW,18.4,23.0,0.00,,Scattered Clouds,300,2013-03-13 05:52:00
1:52 AM,23.0,17.1,78,30.17,10.0,WNW,17.3,-,N/A,,Clear,300,2013-03-13 06:52:00
3:52 AM,21.9,18.0,85,30.19,10.0,WNW,13.8,-,N/A,,Clear,300,2013-03-13 08:52:00
4:52 AM,21.9,16.0,78,30.21,10.0,NW,15.0,-,N/A,,Clear,310,2013-03-13 09:52:00
5:52 AM,21.9,16.0,78,30.24,10.0,NW,15.0,-,N/A,,Clear,310,2013-03-13 10:52:00
6:52 AM,21.0,15.1,78,30.27,10.0,NW,16.1,-,N/A,,Clear,310,2013-03-13 11:52:00
7:52 AM,21.0,15.1,78,30.30,10.0,NW,17.3,24.2,N/A,,Clear,310,2013-03-13 12:52:00
8:52 AM,23.0,14.0,68,30.32,10.0,NW,19.6,-,N/A,,Clear,320,2013-03-13 13:52:00
9:52 AM,25.0,15.1,66,30.35,10.0,NNW,18.4,24.2,N/A,,Clear,330,2013-03-13 14:52:00
10:52 AM,27.0,16.0,63,30.37,10.0,NW,13.8,-,N/A,,Clear,310,2013-03-13 15:52:00
11:52 AM,28.9,16.0,58,30.38,10.0,NNW,17.3,21.9,N/A,,Clear,330,2013-03-13 16:52:00
12:52 PM,30.0,16.0,56,30.39,10.0,NW,12.7,21.9,N/A,,Clear,310,2013-03-13 17:52:00
1:52 PM,32.0,16.0,52,30.39,10.0,NW,17.3,24.2,N/A,,Clear,320,2013-03-13 18:52:00
2:52 PM,33.1,15.1,48,30.38,10.0,NW,16.1,24.2,N/A,,Clear,320,2013-03-13 19:52:00
3:52 PM,33.1,17.1,52,30.38,10.0,NW,19.6,-,N/A,,Clear,310,2013-03-13 20:52:00
4:52 PM,33.1,18.0,54,30.39,10.0,WNW,13.8,-,N/A,,Clear,290,2013-03-13 21:52:00
5:52 PM,32.0,17.1,54,30.39,10.0,NW,11.5,-,N/A,,Clear,310,2013-03-13 22:52:00
6:52 PM,30.0,17.1,59,30.39,10.0,NW,11.5,-,N/A,,Clear,310,2013-03-13 23:52:00
7:52 PM,28.9,18.0,64,30.40,10.0,WNW,8.1,-,N/A,,Clear,300,2013-03-14 00:52:00
8:52 PM,28.0,19.9,72,30.39,8.0,NW,5.8,-,N/A,,Clear,310,2013-03-14 01:52:00
9:52 PM,27.0,21.9,81,30.39,10.0,WNW,5.8,-,N/A,,Clear,290,2013-03-14 02:52:00
10:52 PM,26.1,21.9,84,30.40,10.0,West,4.6,-,N/A,,Clear,280,2013-03-14 03:52:00
11:52 PM,25.0,21.0,85,30.39,10.0,West,3.5,-,N/A,,Clear,280,2013-03-14 04:52:00